QPF
0.05 0.03 0.03 0.04 0.05 0.05 0.05 0.05 0.04 0.05 0.04 0.05 0.05 0.03 0.04 0.04 0.04 0.05 0.06 0.06 0.05 0.04 0.04 0.06 0.10 0.13 0.12 0.08 0.05 0.05 0.06 0.06 0.06 0.05 0.06 0.06 0.05 0.05 0.04 0.04 0.05 0.07 0.06
0.06 0.04 0.04 0.04 0.05 0.04 0.04 0.05 0.05 0.06 0.06 0.06 0.06 0.06 0.06 0.05 0.03 0.03 0.05 0.05 0.03 0.03 0.04 0.05 0.06 0.08 0.10 0.11 0.08 0.06 0.06 0.05 0.05 0.05 0.05 0.05 0.05 0.05 0.04 0.04 0.04 0.06 0.06
0.07 0.06 0.05 0.05 0.04 0.04 0.04 0.04 0.04 0.05 0.05 0.06 0.07 0.07 0.07 0.06 0.05 0.03 0.04 0.04 0.03 0.02 0.01 0.02 0.03 0.04 0.06 0.07 0.07 0.07 0.05 0.05 0.04 0.04 0.04 0.05 0.05 0.05 0.04 0.04 0.03 0.03 0.04
0.09 0.07 0.06 0.05 0.04 0.03 0.03 0.04 0.05 0.05 0.05 0.05 0.05 0.04 0.03 0.03 0.04 0.02 0.02 0.02 0.02 0.01 0.02 0.01 0.02 0.03 0.04 0.06 0.07 0.07 0.06 0.05 0.05 0.05 0.05 0.05 0.05 0.05 0.05 0.04 0.04 0.03 0.03
0.13 0.09 0.06 0.04 0.04 0.03 0.03 0.03 0.04 0.05 0.05 0.05 0.03 0.05 0.06 0.06 0.05 0.03 0.02 0.01 0.01 0.02 0.03 0.02 0.02 0.03 0.04 0.06 0.07 0.08 0.09 0.09 0.08 0.06 0.06 0.06 0.06 0.05 0.05 0.05 0.04 0.04 0.03
0.08 0.07 0.05 0.06 0.06 0.05 0.04 0.04 0.05 0.04 0.04 0.04 0.02 0.02 0.03 0.06 0.06 0.04 0.03 0.02 0.02 0.02 0.02 0.02 0.02 0.03 0.03 0.05 0.08 0.10 0.12 0.12 0.13 0.12 0.11 0.09 0.07 0.05 0.04 0.04 0.04 0.04 0.03
0.08 0.07 0.05 0.05 0.06 0.06 0.06 0.04 0.03 0.04 0.04 0.03 0.02 0.02 0.02 0.02 0.03 0.03 0.03 0.03 0.03 0.02 0.02 0.01 0.02 0.03 0.06 0.06 0.08 0.10 0.11 0.10 0.11 0.13 0.15 0.14 0.10 0.07 0.06 0.06 0.06 0.06 0.05
0.11 0.11 0.10 0.08 0.08 0.08 0.07 0.05 0.05 0.04 0.03 0.04 0.03 0.03 0.01 0.01 0.01 0.01 0.01 0.01 0.01 0.02 0.02 0.02 0.01 0.03 0.04 0.03 0.04 0.08 0.08 0.08 0.08 0.10 0.09 0.10 0.11 0.12 0.10 0.08 0.07 0.07 0.07
0.10 0.10 0.10 0.09 0.08 0.07 0.06 0.05 0.05 0.05 0.05 0.05 0.04 0.03 0.02 0.01 0.01 0.01 0.01 0.01 0.02 0.03 0.03 0.02 0.01 0.01 0.01 0.02 0.02 0.02 0.02 0.03 0.05 0.07 0.08 0.07 0.08 0.11 0.13 0.12 0.11 0.09 0.08
0.09 0.09 0.10 0.10 0.08 0.07 0.06 0.05 0.04 0.06 0.07 0.06 0.05 0.03 0.02 0.01 0.01 0.01 0.01 0.02 0.02 0.03 0.02 0.01 0.01 0.02 0.01 0.01 0.02 0.01 0.01 0.01 0.01 0.03 0.05 0.06 0.06 0.05 0.08 0.10 0.11 0.11 0.09
0.09 0.10 0.10 0.09 0.07 0.05 0.05 0.04 0.04 0.04 0.05 0.06 0.06 0.03 0.02 0.01 0.01 0.01 0.02 0.02 0.02 0.02 0.02 0.02 0.02 0.02 0.01 0.01 0.01 0.01 0.01 0.01 0.01 0.01 0.01 0.02 0.03 0.03 0.03 0.04 0.06 0.07 0.08
0.07 0.07 0.07 0.06 0.05 0.04 0.03 0.03 0.03 0.03 0.03 0.05 0.06 0.06 0.04 0.03 0.03 0.02 0.02 0.02 0.02 0.02 0.01 0.01 0.02 0.01 0.01 0.01 0.00 0.00 0.00 0.00 0.00 0.01 0.01 0.01 0.01 0.02 0.02 0.03 0.03 0.04 0.05
0.07 0.05 0.04 0.04 0.03 0.02 0.03 0.03 0.03 0.03 0.02 0.03 0.04 0.05 0.05 0.04 0.03 0.02 0.02 0.02 0.02 0.02 0.02 0.01 0.01 0.00 0.00 0.00 0.00 0.00 0.00 0.00 0.00 0.01 0.01 0.01 0.02 0.03 0.03 0.03 0.03 0.03 0.04
0.07 0.05 0.04 0.03 0.02 0.02 0.02 0.03 0.02 0.02 0.02 0.02 0.02 0.04 0.05 0.06 0.06 0.04 0.03 0.03 0.03 0.02 0.02 0.01 0.01 0.00 0.00 0.00 0.00 0.00 0.00 0.00 0.00 0.00 0.01 0.01 0.01 0.02 0.02 0.02 0.03 0.02 0.03
0.06 0.05 0.04 0.04 0.03 0.03 0.03 0.03 0.03 0.02 0.02 0.02 0.02 0.03 0.03 0.04 0.04 0.04 0.03 0.03 0.03 0.03 0.02 0.02 0.02 0.01 0.01 0.01 0.01 0.01 0.01 0.01 0.00 0.00 0.01 0.01 0.01 0.02 0.02 0.01 0.02 0.02 0.02
0.05 0.04 0.03 0.03 0.03 0.04 0.03 0.03 0.03 0.03 0.03 0.03 0.03 0.03 0.03 0.03 0.03 0.03 0.03 0.03 0.03 0.03 0.02 0.01 0.02 0.01 0.01 0.01 0.01 0.01 0.01 0.01 0.01 0.01 0.00 0.01 0.01 0.02 0.02 0.02 0.02 0.02 0.02
0.05 0.04 0.03 0.04 0.04 0.03 0.02 0.02 0.02 0.02 0.03 0.03 0.03 0.03 0.02 0.03 0.03 0.03 0.03 0.03 0.03 0.03 0.02 0.01 0.02 0.01 0.02 0.02 0.02 0.03 0.02 0.02 0.01 0.01 0.01 0.01 0.01 0.01 0.02 0.02 0.02 0.02 0.02
0.04 0.03 0.03 0.04 0.04 0.03 0.02 0.02 0.03 0.03 0.03 0.03 0.03 0.03 0.03 0.03 0.03 0.03 0.03 0.04 0.05 0.05 0.05 0.04 0.03 0.02 0.02 0.03 0.03 0.03 0.02 0.02 0.01 0.01 0.01 0.01 0.01 0.01 0.02 0.02 0.02 0.02 0.02
0.03 0.03 0.02 0.03 0.03 0.03 0.03 0.03 0.03 0.03 0.04 0.03 0.02 0.02 0.03 0.03 0.03 0.03 0.04 0.05 0.05 0.05 0.05 0.05 0.03 0.03 0.03 0.03 0.03 0.02 0.02 0.03 0.02 0.01 0.01 0.01 0.01 0.02 0.03 0.03 0.03 0.03 0.02
0.03 0.03 0.03 0.04 0.04 0.04 0.05 0.03 0.03 0.03 0.03 0.03 0.03 0.03 0.03 0.04 0.04 0.05 0.05 0.05 0.04 0.05 0.04 0.04 0.04 0.04 0.03 0.03 0.03 0.04 0.04 0.04 0.03 0.02 0.01 0.01 0.02 0.03 0.03 0.03 0.03 0.03 0.02
0.03 0.02 0.03 0.04 0.05 0.05 0.05 0.04 0.03 0.03 0.04 0.04 0.03 0.03 0.03 0.03 0.04 0.05 0.04 0.04 0.03 0.04 0.03 0.03 0.04 0.04 0.03 0.03 0.04 0.04 0.04 0.03 0.03 0.03 0.03 0.03 0.03 0.04 0.04 0.04 0.03 0.02 0.02
0.02 0.02 0.02 0.03 0.03 0.03 0.03 0.02 0.02 0.02 0.02 0.02 0.02 0.02 0.02 0.02 0.02 0.02 0.02 0.02 0.02 0.02 0.02 0.02 0.03 0.04 0.04 0.04 0.05 0.05 0.04 0.03 0.03 0.04 0.04 0.03 0.03 0.04 0.04 0.04 0.03 0.03 0.02
0.03 0.02 0.02 0.01 0.01 0.02 0.02 0.01 0.01 0.01 0.02 0.02 0.02 0.02 0.01 0.01 0.01 0.01 0.01 0.01 0.01 0.02 0.02 0.02 0.03 0.04 0.04 0.05 0.05 0.05 0.05 0.04 0.04 0.04 0.03 0.02 0.03 0.03 0.03 0.03 0.02 0.02 0.03
0.03 0.02 0.02 0.01 0.01 0.01 0.01 0.01 0.01 0.01 0.01 0.01 0.01 0.01 0.01 0.01 0.01 0.02 0.02 0.01 0.02 0.02 0.02 0.02 0.02 0.02 0.03 0.03 0.03 0.04 0.04 0.04 0.03 0.04 0.04 0.03 0.03 0.03 0.04 0.05 0.04 0.03 0.03
0.02 0.02 0.02 0.01 0.02 0.01 0.02 0.02 0.01 0.01 0.01 0.01 0.01 0.01 0.01 0.01 0.02 0.02 0.02 0.02 0.01 0.01 0.02 0.02 0.02 0.02 0.03 0.03 0.02 0.03 0.04 0.04 0.03 0.03 0.04 0.04 0.04 0.04 0.04 0.04 0.04 0.04 0.05
0.01 0.01 0.01 0.01 0.01 0.01 0.02 0.02 0.01 0.01 0.01 0.01 0.01 0.01 0.01 0.01 0.01 0.01 0.01 0.01 0.01 0.01 0.01 0.01 0.01 0.01 0.01 0.02 0.02 0.02 0.04 0.05 0.03 0.03 0.04 0.04 0.04 0.04 0.04 0.05 0.04 0.05 0.05
MSLP
1012.53 1012.57 1012.56 1012.54 1012.52 1012.52 1012.54 1012.58 1012.62 1012.66 1012.68 1012.66 1012.60 1012.50 1012.38 1012.26 1012.14 1012.07 1012.05 1012.08 1012.16 1012.27 1012.40 1012.51 1012.59 1012.65 1012.68 1012.69 1012.70 1012.75 1012.84 1012.99 1013.22 1013.51 1013.86 1014.23 1014.61 1014.97 1015.29 1015.57 1015.80 1015.99 1016.16
1012.21 1012.22 1012.20 1012.17 1012.15 1012.15 1012.18 1012.25 1012.32 1012.39 1012.43 1012.43 1012.37 1012.26 1012.11 1011.94 1011.78 1011.64 1011.55 1011.52 1011.55 1011.62 1011.71 1011.82 1011.91 1011.98 1012.03 1012.06 1012.09 1012.14 1012.23 1012.38 1012.59 1012.87 1013.19 1013.56 1013.93 1014.30 1014.63 1014.93 1015.18 1015.41 1015.62
1011.84 1011.85 1011.83 1011.81 1011.81 1011.84 1011.91 1012.00 1012.11 1012.20 1012.25 1012.24 1012.16 1012.02 1011.81 1011.58 1011.34 1011.12 1010.96 1010.86 1010.83 1010.86 1010.94 1011.05 1011.16 1011.26 1011.35 1011.42 1011.47 1011.54 1011.63 1011.76 1011.94 1012.18 1012.48 1012.81 1013.16 1013.51 1013.85 1014.17 1014.47 1014.74 1015.01
1011.44 1011.46 1011.46 1011.46 1011.50 1011.57 1011.68 1011.82 1011.94 1012.04 1012.09 1012.05 1011.93 1011.73 1011.45 1011.14 1010.82 1010.53 1010.29 1010.12 1010.04 1010.04 1010.11 1010.22 1010.36 1010.50 1010.63 1010.73 1010.82 1010.90 1010.99 1011.10 1011.25 1011.45 1011.69 1011.97 1012.29 1012.62 1012.97 1013.31 1013.65 1013.98 1014.30
1011.05 1011.08 1011.10 1011.14 1011.22 1011.34 1011.49 1011.65 1011.79 1011.89 1011.90 1011.83 1011.66 1011.39 1011.04 1010.66 1010.26 1009.90 1009.59 1009.37 1009.24 1009.21 1009.26 1009.38 1009.53 1009.70 1009.86 1010.00 1010.12 1010.22 1010.30 1010.39 1010.51 1010.65 1010.84 1011.07 1011.34 1011.66 1012.00 1012.36 1012.74 1013.12 1013.51
1010.73 1010.76 1010.80 1010.88 1011.00 1011.16 1011.34 1011.51 1011.66 1011.73 1011.71 1011.59 1011.36 1011.03 1010.63 1010.19 1009.74 1009.32 1008.96 1008.69 1008.51 1008.44 1008.46 1008.56 1008.71 1008.89 1009.06 1009.23 1009.37 1009.48 1009.56 1009.64 1009.72 1009.82 1009.95 1010.13 1010.36 1010.65 1010.98 1011.36 1011.77 1012.20 1012.64
1010.54 1010.57 1010.62 1010.73 1010.87 1011.06 1011.25 1011.42 1011.54 1011.59 1011.53 1011.36 1011.09 1010.73 1010.30 1009.82 1009.34 1008.89 1008.48 1008.16 1007.93 1007.81 1007.77 1007.82 1007.94 1008.10 1008.27 1008.44 1008.58 1008.70 1008.79 1008.86 1008.92 1008.98 1009.07 1009.21 1009.40 1009.65 1009.98 1010.36 1010.79 1011.26 1011.74
1010.54 1010.55 1010.61 1010.72 1010.88 1011.06 1011.25 1011.40 1011.50 1011.50 1011.41 1011.21 1010.92 1010.54 1010.10 1009.63 1009.14 1008.67 1008.23 1007.86 1007.57 1007.37 1007.25 1007.22 1007.27 1007.37 1007.51 1007.66 1007.80 1007.92 1008.02 1008.08 1008.13 1008.18 1008.24 1008.34 1008.50 1008.73 1009.04 1009.42 1009.86 1010.34 1010.84
1010.75 1010.74 1010.79 1010.89 1011.04 1011.21 1011.36 1011.48 1011.53 1011.50 1011.38 1011.16 1010.86 1010.50 1010.08 1009.63 1009.16 1008.69 1008.24 1007.82 1007.45 1007.15 1006.93 1006.79 1006.73 1006.75 1006.82 1006.93 1007.05 1007.17 1007.27 1007.34 1007.39 1007.43 1007.48 1007.56 1007.69 1007.90 1008.18 1008.55 1008.98 1009.46 1009.96
1011.15 1011.11 1011.14 1011.21 1011.33 1011.46 1011.57 1011.63 1011.64 1011.57 1011.42 1011.20 1010.92 1010.59 1010.22 1009.81 1009.38 1008.92 1008.45 1007.98 1007.54 1007.13 1006.78 1006.51 1006.33 1006.24 1006.23 1006.28 1006.36 1006.47 1006.56 1006.64 1006.70 1006.74 1006.78 1006.85 1006.97 1007.15 1007.41 1007.76 1008.17 1008.64 1009.14
1011.67 1011.59 1011.58 1011.62 1011.69 1011.77 1011.82 1011.82 1011.78 1011.67 1011.50 1011.29 1011.03 1010.74 1010.43 1010.07 1009.68 1009.25 1008.77 1008.26 1007.74 1007.23 1006.75 1006.35 1006.04 1005.83 1005.72 1005.69 1005.73 1005.81 1005.90 1005.98 1006.05 1006.09 1006.13 1006.19 1006.29 1006.45 1006.69 1007.01 1007.41 1007.86 1008.35
1012.19 1012.09 1012.04 1012.03 1012.05 1012.06 1012.04 1011.98 1011.88 1011.73 1011.55 1011.34 1011.11 1010.86 1010.60 1010.30 1009.96 1009.55 1009.07 1008.53 1007.94 1007.34 1006.76 1006.23 1005.80 1005.47 1005.27 1005.17 1005.15 1005.20 1005.27 1005.34 1005.40 1005.45 1005.48 1005.53 1005.61 1005.76 1005.98 1006.28 1006.66 1007.11 1007.60
1012.63 1012.50 1012.41 1012.36 1012.32 1012.26 1012.18 1012.06 1011.91 1011.72 1011.51 1011.29 1011.08 1010.87 1010.65 1010.39 1010.08 1009.70 1009.22 1008.66 1008.04 1007.37 1006.71 1006.09 1005.56 1005.14 1004.85 1004.67 1004.60 1004.60 1004.65 1004.70 1004.75 1004.78 1004.81 1004.84 1004.91 1005.04 1005.25 1005.54 1005.92 1006.37 1006.88
1012.94 1012.78 1012.66 1012.56 1012.47 1012.36 1012.22 1012.05 1011.83 1011.60 1011.36 1011.13 1010.91 1010.71 1010.51 1010.28 1009.99 1009.63 1009.17 1008.60 1007.96 1007.26 1006.55 1005.88 1005.28 1004.80 1004.44 1004.20 1004.08 1004.03 1004.03 1004.06 1004.09 1004.10 1004.11 1004.14 1004.20 1004.32 1004.52 1004.81 1005.20 1005.67 1006.21
1013.09 1012.92 1012.78 1012.65 1012.52 1012.37 1012.18 1011.95 1011.69 1011.41 1011.13 1010.86 1010.62 1010.41 1010.19 1009.96 1009.69 1009.33 1008.88 1008.33 1007.69 1006.99 1006.27 1005.58 1004.95 1004.43 1004.03 1003.75 1003.58 1003.49 1003.45 1003.45 1003.45 1003.45 1003.45 1003.47 1003.52 1003.65 1003.85 1004.15 1004.56 1005.05 1005.63
1013.15 1012.97 1012.82 1012.68 1012.53 1012.34 1012.12 1011.85 1011.55 1011.22 1010.89 1010.57 1010.29 1010.02 1009.77 1009.52 1009.22 1008.86 1008.42 1007.89 1007.27 1006.59 1005.90 1005.21 1004.59 1004.06 1003.64 1003.33 1003.13 1003.01 1002.94 1002.91 1002.90 1002.88 1002.88 1002.90 1002.97 1003.10 1003.32 1003.64 1004.07 1004.59 1005.19
1013.20 1013.03 1012.88 1012.73 1012.57 1012.37 1012.12 1011.82 1011.48 1011.10 1010.71 1010.34 1009.98 1009.65 1009.34 1009.04 1008.71 1008.33 1007.89 1007.37 1006.78 1006.14 1005.48 1004.84 1004.24 1003.72 1003.30 1002.99 1002.77 1002.63 1002.55 1002.51 1002.50 1002.49 1002.50 1002.55 1002.64 1002.79 1003.04 1003.38 1003.82 1004.36 1004.98
1013.33 1013.16 1013.02 1012.88 1012.71 1012.50 1012.24 1011.92 1011.54 1011.11 1010.67 1010.22 1009.78 1009.38 1008.99 1008.62 1008.24 1007.84 1007.39 1006.89 1006.33 1005.73 1005.11 1004.51 1003.94 1003.45 1003.05 1002.74 1002.53 1002.40 1002.32 1002.30 1002.30 1002.33 1002.37 1002.46 1002.58 1002.77 1003.04 1003.40 1003.86 1004.40 1005.02
1013.59 1013.43 1013.29 1013.15 1012.98 1012.76 1012.48 1012.14 1011.72 1011.25 1010.74 1010.23 1009.72 1009.23 1008.77 1008.33 1007.90 1007.46 1007.00 1006.51 1005.98 1005.42 1004.84 1004.28 1003.75 1003.29 1002.91 1002.62 1002.43 1002.31 1002.27 1002.27 1002.32 1002.40 1002.50 1002.64 1002.82 1003.05 1003.35 1003.72 1004.18 1004.70 1005.30
1013.98 1013.82 1013.68 1013.52 1013.34 1013.10 1012.80 1012.43 1011.98 1011.46 1010.90 1010.32 1009.74 1009.19 1008.66 1008.17 1007.69 1007.23 1006.76 1006.28 1005.77 1005.23 1004.70 1004.17 1003.67 1003.24 1002.88 1002.62 1002.45 1002.36 1002.36 1002.42 1002.53 1002.67 1002.85 1003.05 1003.29 1003.56 1003.89 1004.27 1004.71 1005.21 1005.76
1014.45 1014.28 1014.11 1013.92 1013.71 1013.44 1013.11 1012.70 1012.21 1011.65 1011.05 1010.42 1009.79 1009.19 1008.62 1008.09 1007.59 1007.12 1006.65 1006.18 1005.69 1005.18 1004.67 1004.17 1003.70 1003.28 1002.95 1002.70 1002.56 1002.52 1002.56 1002.68 1002.86 1003.07 1003.32 1003.59 1003.88 1004.20 1004.54 1004.93 1005.35 1005.81 1006.32
1014.91 1014.70 1014.49 1014.26 1013.99 1013.68 1013.30 1012.85 1012.32 1011.73 1011.10 1010.44 1009.79 1009.16 1008.58 1008.04 1007.55 1007.08 1006.63 1006.18 1005.71 1005.23 1004.74 1004.26 1003.80 1003.40 1003.08 1002.85 1002.73 1002.71 1002.80 1002.97 1003.21 1003.50 1003.81 1004.14 1004.47 1004.82 1005.18 1005.55 1005.95 1006.37 1006.83
1015.27 1015.01 1014.74 1014.45 1014.13 1013.75 1013.32 1012.83 1012.27 1011.65 1011.00 1010.33 1009.68 1009.06 1008.49 1007.98 1007.51 1007.07 1006.65 1006.23 1005.80 1005.34 1004.87 1004.40 1003.95 1003.55 1003.23 1003.01 1002.90 1002.91 1003.03 1003.24 1003.52 1003.85 1004.20 1004.57 1004.93 1005.29 1005.65 1006.01 1006.38 1006.77 1007.19
1015.45 1015.14 1014.81 1014.46 1014.07 1013.65 1013.17 1012.63 1012.04 1011.41 1010.76 1010.10 1009.47 1008.88 1008.34 1007.87 1007.45 1007.06 1006.68 1006.30 1005.90 1005.47 1005.02 1004.56 1004.12 1003.72 1003.40 1003.18 1003.07 1003.08 1003.20 1003.42 1003.72 1004.06 1004.43 1004.80 1005.17 1005.52 1005.86 1006.20 1006.54 1006.91 1007.31
1015.44 1015.08 1014.70 1014.31 1013.88 1013.41 1012.90 1012.34 1011.73 1011.10 1010.45 1009.82 1009.22 1008.66 1008.18 1007.75 1007.38 1007.04 1006.71 1006.37 1006.01 1005.61 1005.18 1004.73 1004.29 1003.90 1003.57 1003.33 1003.21 1003.21 1003.32 1003.53 1003.81 1004.13 1004.48 1004.82 1005.16 1005.47 1005.78 1006.09 1006.41 1006.76 1007.13
1015.26 1014.88 1014.48 1014.06 1013.61 1013.13 1012.60 1012.04 1011.44 1010.82 1010.19 1009.58 1009.01 1008.49 1008.04 1007.66 1007.33 1007.03 1006.74 1006.44 1006.11 1005.74 1005.33 1004.90 1004.46 1004.07 1003.74 1003.49 1003.35 1003.32 1003.40 1003.57 1003.80 1004.08 1004.37 1004.66 1004.93 1005.20 1005.46 1005.72 1006.00 1006.32 1006.68
Thickness
5721 5721 5720 5717 5718 5717 5716 5715 5716 5714 5713 5713 5712 5711 5710 5708 5708 5708 5706 5702 5700 5699 5698 5698 5697 5697 5697 5696 5696 5696 5695 5695 5694 5694 5693 5693 5693 5693 5693 5693 5693 5694 5695
5717 5717 5716 5714 5714 5713 5712 5712 5712 5711 5710 5710 5709 5708 5706 5706 5704 5703 5703 5701 5698 5697 5696 5695 5695 5695 5694 5694 5693 5693 5693 5692 5692 5691 5691 5690 5690 5690 5690 5690 5690 5691 5691
5714 5713 5713 5711 5711 5709 5708 5708 5709 5709 5707 5707 5706 5705 5704 5702 5702 5700 5700 5699 5699 5696 5694 5693 5692 5692 5691 5691 5690 5690 5690 5689 5689 5688 5688 5688 5687 5687 5687 5687 5687 5687 5688
5710 5709 5709 5708 5706 5706 5706 5706 5706 5705 5704 5703 5704 5704 5702 5700 5699 5698 5698 5697 5697 5697 5694 5691 5690 5689 5688 5688 5687 5687 5686 5686 5686 5685 5685 5685 5685 5685 5685 5684 5684 5684 5684
5706 5705 5705 5703 5702 5702 5702 5702 5702 5700 5699 5699 5700 5699 5699 5698 5697 5696 5695 5694 5694 5693 5693 5690 5687 5686 5685 5685 5684 5684 5683 5683 5682 5682 5682 5682 5681 5681 5681 5681 5680 5680 5680
5702 5701 5700 5698 5698 5699 5697 5696 5695 5694 5694 5694 5697 5696 5695 5695 5695 5694 5693 5693 5691 5690 5690 5689 5687 5686 5683 5681 5681 5680 5680 5679 5678 5678 5678 5678 5677 5677 5677 5677 5676 5676 5676
5700 5697 5697 5694 5693 5694 5692 5692 5691 5690 5690 5691 5690 5689 5691 5692 5691 5690 5690 5690 5689 5687 5686 5685 5684 5683 5682 5679 5677 5676 5676 5675 5674 5674 5673 5673 5673 5672 5672 5672 5672 5672 5672
5696 5695 5692 5691 5690 5689 5687 5687 5686 5686 5687 5687 5686 5684 5683 5685 5685 5688 5686 5685 5684 5684 5683 5682 5680 5678 5677 5677 5676 5672 5671 5670 5669 5669 5669 5668 5668 5667 5667 5667 5668 5668 5668
5691 5690 5689 5688 5687 5687 5685 5683 5683 5681 5681 5682 5683 5681 5678 5679 5680 5682 5681 5681 5679 5678 5678 5678 5675 5673 5672 5671 5671 5669 5666 5665 5664 5664 5663 5663 5663 5663 5662 5662 5662 5663 5663
5687 5686 5685 5682 5682 5683 5681 5680 5680 5678 5677 5677 5677 5676 5676 5676 5672 5673 5676 5677 5675 5673 5672 5672 5671 5669 5667 5666 5665 5663 5661 5659 5658 5658 5657 5657 5658 5658 5657 5657 5657 5657 5658
5683 5682 5680 5679 5677 5678 5676 5675 5674 5674 5674 5673 5673 5672 5671 5670 5669 5665 5664 5666 5668 5669 5667 5665 5664 5664 5662 5661 5660 5659 5656 5654 5652 5652 5651 5651 5651 5652 5652 5652 5652 5652 5653
5679 5678 5677 5675 5674 5673 5672 5672 5671 5670 5669 5668 5668 5668 5667 5665 5664 5662 5659 5658 5659 5661 5661 5660 5658 5658 5657 5656 5655 5652 5650 5648 5647 5646 5645 5645 5645 5645 5646 5647 5647 5647 5648
5676 5673 5673 5671 5670 5669 5668 5668 5666 5666 5665 5663 5662 5662 5663 5662 5661 5658 5654 5653 5653 5655 5655 5655 5654 5653 5652 5651 5649 5645 5644 5642 5641 5640 5639 5639 5639 5639 5640 5641 5642 5643 5643
5671 5669 5668 5667 5666 5665 5665 5664 5664 5662 5661 5659 5658 5656 5655 5656 5654 5652 5649 5647 5645 5647 5649 5649 5650 5648 5646 5644 5642 5639 5639 5637 5636 5634 5633 5633 5633 5634 5635 5635 5636 5637 5637
5667 5666 5665 5663 5662 5662 5661 5660 5660 5658 5656 5656 5655 5653 5651 5651 5649 5647 5645 5642 5638 5637 5640 5642 5642 5641 5638 5635 5634 5633 5633 5632 5630 5628 5627 5627 5627 5628 5628 5629 5630 5631 5631
5662 5662 5661 5660 5659 5659 5658 5656 5656 5654 5652 5651 5649 5647 5644 5645 5644 5642 5639 5637 5635 5631 5631 5635 5634 5635 5630 5628 5627 5626 5626 5625 5623 5622 5622 5621 5621 5622 5622 5623 5624 5624 5625
5659 5658 5658 5658 5657 5656 5655 5653 5652 5650 5648 5647 5645 5643 5641 5638 5637 5636 5634 5633 5630 5627 5623 5627 5628 5627 5623 5620 5620 5619 5619 5619 5620 5618 5617 5616 5615 5616 5616 5616 5617 5618 5618
5656 5656 5656 5655 5654 5653 5651 5649 5648 5647 5645 5643 5641 5638 5637 5635 5632 5630 5627 5626 5624 5621 5618 5616 5618 5618 5616 5615 5613 5611 5613 5614 5613 5613 5611 5610 5610 5610 5610 5610 5611 5611 5611
5654 5654 5653 5652 5651 5649 5648 5646 5644 5643 5641 5639 5637 5634 5632 5630 5626 5625 5621 5620 5617 5616 5612 5609 5610 5611 5610 5609 5605 5605 5605 5604 5606 5608 5606 5605 5604 5604 5604 5604 5604 5604 5604
5652 5651 5650 5649 5647 5646 5644 5642 5641 5640 5638 5635 5633 5631 5628 5625 5622 5618 5616 5613 5610 5607 5605 5604 5604 5604 5602 5601 5597 5596 5597 5597 5598 5601 5601 5601 5600 5599 5599 5598 5597 5597 5597
5650 5649 5647 5645 5644 5643 5640 5637 5636 5636 5633 5631 5630 5627 5625 5620 5615 5611 5609 5606 5602 5600 5599 5598 5597 5596 5594 5591 5589 5589 5589 5589 5591 5591 5593 5595 5595 5595 5595 5593 5591 5591 5590
5647 5646 5644 5643 5641 5640 5633 5630 5628 5630 5629 5628 5626 5623 5621 5618 5611 5606 5601 5598 5594 5592 5591 5589 5589 5586 5583 5582 5580 5579 5579 5580 5581 5583 5582 5585 5587 5588 5588 5589 5586 5584 5582
5644 5642 5641 5640 5638 5633 5628 5625 5623 5623 5625 5624 5621 5619 5617 5615 5608 5604 5599 5594 5591 5586 5581 5580 5579 5577 5575 5575 5571 5571 5570 5569 5570 5572 5572 5575 5578 5579 5581 5581 5578 5575 5573
5642 5640 5639 5638 5635 5631 5625 5622 5620 5622 5623 5621 5619 5615 5611 5608 5603 5597 5595 5593 5589 5585 5579 5576 5573 5570 5568 5565 5562 5561 5561 5562 5563 5565 5564 5565 5569 5570 5572 5571 5568 5566 5565
5640 5639 5638 5636 5634 5630 5624 5621 5617 5622 5622 5619 5617 5613 5608 5603 5595 5589 5589 5588 5585 5580 5576 5571 5566 5563 5560 5557 5554 5555 5557 5557 5559 5560 5559 5557 5559 5560 5562 5562 5561 5558 5557
5639 5638 5637 5636 5633 5630 5624 5619 5615 5621 5619 5618 5615 5611 5603 5597 5589 5584 5584 5582 5579 5576 5572 5570 5565 5561 5559 5555 5551 5549 5550 5550 5552 5552 5552 5548 5550 5550 5552 5555 5554 5552 5550